Terminal Aerodrome Forecast
Issued by NWS Chicago, IL

Home | Current Version | Previous Version | Graphics & Text | Print | Product List | Glossary On
Versions: 1 2 3 4 5 6 7 8 9 10 11 12 13 14 15 16 17 18 19 20 21 22 23 24 25 26 27 28 29 30 31 32 33 34 35 36 37 38 39
000
FTUS43 KLOT 221100
TAFRFD
TAF
KRFD 221128Z 2212/2312 17004KT 4SM BR BCFG SCT003 BKN040
     FM221500 24005KT P6SM SCT025 BKN100
     FM222100 13005KT P6SM VCTS BKN040CB BKN100
     FM230300 06005KT 4SM BR SCT040 BKN250=

USA.gov is the U.S. government's official web portal to all federal, state and local government web resources and services.